When you browse on this site, cookies collect data to enhance your experience and personalize the content and advertising you see.
Visit our Privacy Policy to learn more. By continuing to use the site, you agree to this use of cookies and data.
  • In France
  • List of Countries
  • For 7 days
  • Water Temperature
  • Satellite Maps
  • Weather Map
  • Weather Widgets
  • user-avatar
    Login

    Hourly Weather Burma

    Today, 24 May, Friday

    Time Temperature Precipitation Wind Pressure Humidity
    00:00 +4°C° 0.2 mm 0 mps 555 mmHg 90%
    01:00 +3°C° 0.2 mm 0 mps 555 mmHg 90%
    02:00 +3°C° 0.2 mm 0 mps 555 mmHg 90%
    03:00 +3°C° 0.2 mm 0 mps 554 mmHg 90%
    04:00 +4°C° 0.2 mm 1 mps 554 mmHg 91%
    05:00 +4°C° 0 mm 1 mps 554 mmHg 89%
    06:00 +4°C° 0.8 mm 1 mps 555 mmHg 89%
    07:00 +5°C° 0.8 mm 1 mps 555 mmHg 89%
    08:00 +4°C° 0.8 mm 2 mps 555 mmHg 89%
    09:00 +4°C° 1.3 mm 2 mps 556 mmHg 89%
    10:00 +4°C° 1.3 mm 2 mps 556 mmHg 89%
    11:00 +3°C° 0 mm 3 mps 556 mmHg 89%
    12:00 +4°C° 1.1 mm 3 mps 557 mmHg 88%
    13:00 +4°C° 1.1 mm 3 mps 557 mmHg 86%
    14:00 +4°C° 1.1 mm 3 mps 557 mmHg 85%
    15:00 +4°C° 0.6 mm 3 mps 557 mmHg 86%
    16:00 +4°C° 0.6 mm 3 mps 557 mmHg 86%
    17:00 +5°C° 0.6 mm 2 mps 557 mmHg 86%
    18:00 +5°C° 0.4 mm 2 mps 557 mmHg 88%
    19:00 +4°C° 0.4 mm 2 mps 557 mmHg 91%
    20:00 +4°C° 0.4 mm 1 mps 557 mmHg 93%
    21:00 +4°C° 0.2 mm 1 mps 557 mmHg 92%
    22:00 +4°C° 0.2 mm 1 mps 557 mmHg 91%
    23:00 +4°C° 0.2 mm 1 mps 557 mmHg 91%

    Tomorrow, 25 May, Saturday

    Time Temperature Precipitation Wind Pressure Humidity
    00:00 +3°C° 0.1 mm 1 mps 557 mmHg 89%
    01:00 +3°C° 0.1 mm 1 mps 557 mmHg 88%
    02:00 +2°C° 0.1 mm 2 mps 556 mmHg 87%
    03:00 +1°C° 0 mm 2 mps 556 mmHg 86%
    04:00 +1°C° 0 mm 2 mps 556 mmHg 85%
    05:00 +1°C° 0 mm 2 mps 556 mmHg 83%
    06:00 +2°C° 0 mm 2 mps 557 mmHg 79%
    07:00 +4°C° 0 mm 2 mps 558 mmHg 75%
    08:00 +5°C° 0 mm 2 mps 559 mmHg 71%
    09:00 +6°C° 0.5 mm 2 mps 559 mmHg 71%
    10:00 +5°C° 0.5 mm 3 mps 559 mmHg 71%
    11:00 +7°C° 0.5 mm 3 mps 559 mmHg 71%
    12:00 +7°C° 1 mm 3 mps 559 mmHg 70%
    13:00 +7°C° 1 mm 2 mps 559 mmHg 70%
    14:00 +7°C° 1 mm 2 mps 559 mmHg 69%
    15:00 +7°C° 1 mm 2 mps 559 mmHg 70%
    16:00 +8°C° 1 mm 1 mps 558 mmHg 71%
    17:00 +8°C° 1 mm 1 mps 558 mmHg 71%
    18:00 +7°C° 0.6 mm 1 mps 558 mmHg 72%
    19:00 +6°C° 0.6 mm 1 mps 558 mmHg 73%
    20:00 +5°C° 0.6 mm 1 mps 557 mmHg 74%
    21:00 +4°C° 0.2 mm 2 mps 557 mmHg 73%
    22:00 +3°C° 0.2 mm 2 mps 557 mmHg 71%
    23:00 +2°C° 0.2 mm 3 mps 557 mmHg 69%

    Day after tomorrow, 26 May, Sunday

    Time Temperature Precipitation Wind Pressure Humidity
    00:00 +1°C° 0 mm 3 mps 557 mmHg 68%
    01:00 +1°C° 0 mm 3 mps 556 mmHg 66%
    02:00 +1°C° 0 mm 3 mps 556 mmHg 65%
    03:00 +1°C° 0 mm 2 mps 556 mmHg 64%
    04:00 +1°C° 0 mm 2 mps 556 mmHg 64%
    05:00 +1°C° 0 mm 2 mps 556 mmHg 63%
    06:00 +3°C° 0 mm 2 mps 557 mmHg 65%
    07:00 +6°C° 0 mm 1 mps 558 mmHg 66%
    08:00 +7°C° 0 mm 1 mps 560 mmHg 67%
    09:00 +8°C° 0 mm 1 mps 560 mmHg 67%
    10:00 +9°C° 0 mm 1 mps 561 mmHg 66%
    11:00 +9°C° 0 mm 2 mps 561 mmHg 66%
    12:00 +9°C° 0 mm 2 mps 561 mmHg 64%
    13:00 +10°C° 0 mm 2 mps 561 mmHg 63%
    14:00 +11°C° 0 mm 1 mps 561 mmHg 61%
    15:00 +11°C° 0 mm 1 mps 561 mmHg 60%
    16:00 +12°C° 0 mm 1 mps 561 mmHg 59%
    17:00 +12°C° 0 mm 1 mps 561 mmHg 58%
    18:00 +10°C° 0 mm 1 mps 560 mmHg 59%
    19:00 +8°C° 0 mm 1 mps 559 mmHg 60%
    20:00 +6°C° 0 mm 1 mps 558 mmHg 62%
    21:00 +5°C° 0 mm 2 mps 558 mmHg 59%
    22:00 +5°C° 0 mm 2 mps 558 mmHg 56%
    23:00 +4°C° 0 mm 3 mps 558 mmHg 53%

    27 May, Monday

    Time Temperature Precipitation Wind Pressure Humidity
    00:00 +3°C° 0 mm 3 mps 558 mmHg 52%
    01:00 +4°C° 0 mm 2 mps 558 mmHg 51%
    02:00 +4°C° 0 mm 2 mps 558 mmHg 50%
    03:00 +4°C° 0 mm 2 mps 558 mmHg 49%
    04:00 +4°C° 0 mm 2 mps 557 mmHg 48%
    05:00 +4°C° 0 mm 2 mps 557 mmHg 47%
    06:00 +6°C° 0 mm 2 mps 558 mmHg 49%
    07:00 +8°C° 0 mm 1 mps 559 mmHg 50%
    08:00 +9°C° 0 mm 0 mps 561 mmHg 52%
    09:00 +11°C° 0 mm 1 mps 561 mmHg 52%
    10:00 +12°C° 0 mm 1 mps 561 mmHg 52%
    11:00 +13°C° 0 mm 1 mps 562 mmHg 52%
    12:00 +13°C° 0 mm 1 mps 562 mmHg 50%
    13:00 +14°C° 0 mm 1 mps 562 mmHg 49%
    14:00 +15°C° 0 mm 2 mps 562 mmHg 48%
    15:00 +15°C° 0 mm 1 mps 562 mmHg 47%
    16:00 +15°C° 0 mm 1 mps 561 mmHg 46%
    17:00 +15°C° 0 mm 1 mps 561 mmHg 46%
    18:00 +13°C° 0 mm 1 mps 560 mmHg 47%
    19:00 +10°C° 0 mm 1 mps 559 mmHg 49%
    20:00 +8°C° 0 mm 1 mps 558 mmHg 50%
    21:00 +7°C° 0 mm 2 mps 558 mmHg 47%
    22:00 +7°C° 0 mm 2 mps 558 mmHg 44%
    23:00 +7°C° 0 mm 3 mps 558 mmHg 42%

    28 May, Tuesday

    Time Temperature Precipitation Wind Pressure Humidity
    00:00 +7°C° 0 mm 2 mps 558 mmHg 41%
    01:00 +7°C° 0 mm 2 mps 558 mmHg 40%
    02:00 +6°C° 0 mm 2 mps 558 mmHg 40%
    03:00 +6°C° 0 mm 2 mps 558 mmHg 41%
    04:00 +6°C° 0 mm 2 mps 558 mmHg 42%
    05:00 +6°C° 0 mm 2 mps 557 mmHg 43%
    06:00 +9°C° 0 mm 1 mps 559 mmHg 45%
    07:00 +11°C° 0 mm 1 mps 560 mmHg 46%
    08:00 +11°C° 0 mm 0 mps 561 mmHg 48%
    09:00 +13°C° 0 mm 1 mps 561 mmHg 48%
    10:00 +14°C° 0 mm 1 mps 562 mmHg 48%
    11:00 +15°C° 0 mm 2 mps 562 mmHg 48%
    12:00 +15°C° 0 mm 2 mps 562 mmHg 47%
    13:00 +16°C° 0 mm 2 mps 562 mmHg 47%
    14:00 +16°C° 0 mm 2 mps 562 mmHg 46%
    15:00 +16°C° 0 mm 2 mps 562 mmHg 46%
    16:00 +16°C° 0 mm 2 mps 562 mmHg 46%
    17:00 +16°C° 0 mm 2 mps 562 mmHg 46%
    18:00 +14°C° 0 mm 1 mps 560 mmHg 51%
    19:00 +12°C° 0 mm 1 mps 559 mmHg 55%
    20:00 +9°C° 0 mm 1 mps 558 mmHg 60%
    21:00 +9°C° 0 mm 1 mps 558 mmHg 56%
    22:00 +9°C° 0 mm 1 mps 558 mmHg 53%
    23:00 +9°C° 0 mm 1 mps 558 mmHg 50%

    29 May, Wednesday

    Time Temperature Precipitation Wind Pressure Humidity
    00:00 +9°C° 0 mm 1 mps 558 mmHg 50%
    01:00 +8°C° 0 mm 1 mps 558 mmHg 51%
    02:00 +8°C° 0 mm 1 mps 557 mmHg 51%
    03:00 +8°C° 0 mm 1 mps 557 mmHg 52%
    04:00 +8°C° 0 mm 1 mps 557 mmHg 54%
    05:00 +7°C° 0 mm 1 mps 557 mmHg 55%
    06:00 +9°C° 0 mm 1 mps 558 mmHg 53%
    07:00 +12°C° 0 mm 1 mps 559 mmHg 51%
    08:00 +14°C° 0 mm 1 mps 561 mmHg 50%
    09:00 +15°C° 0 mm 1 mps 561 mmHg 48%
    10:00 +16°C° 0 mm 2 mps 561 mmHg 47%
    11:00 +16°C° 0 mm 2 mps 562 mmHg 46%
    12:00 +17°C° 0 mm 2 mps 562 mmHg 45%
    13:00 +18°C° 0 mm 2 mps 562 mmHg 44%
    14:00 +18°C° 0 mm 2 mps 562 mmHg 43%
    15:00 +18°C° 0.4 mm 2 mps 561 mmHg 45%
    16:00 +18°C° 0.4 mm 2 mps 561 mmHg 46%
    17:00 +17°C° 0.4 mm 2 mps 561 mmHg 48%
    18:00 +15°C° 0.2 mm 1 mps 560 mmHg 53%
    19:00 +13°C° 0.2 mm 1 mps 559 mmHg 59%
    20:00 +10°C° 0.2 mm 0 mps 558 mmHg 64%
    21:00 +10°C° 0 mm 0 mps 558 mmHg 64%
    22:00 +9°C° 0 mm 0 mps 558 mmHg 64%
    23:00 +9°C° 0 mm 0 mps 558 mmHg 63%
    Show more